| time (UTC) | temp F | wind direction | speed MPH | gust MPH | rain 1hr in | rain 24hr in | rain mn in | humidity % | barometer mb |
| 20260505191859 | 74 | 163 | 3.0 | 10.0 | 0.00 | 0.00 | 0.00 | 100 | 1019.0 |
| 20260505191359 | 74 | 228 | 4.0 | 10.0 | 0.00 | 0.00 | 0.00 | 100 | 1019.0 |
| 20260505190858 | 74 | 169 | 5.0 | 14.0 | 0.00 | 0.00 | 0.00 | 100 | 1019.0 |
| 20260505190358 | 73 | 227 | 6.0 | 14.0 | 0.00 | 0.00 | 0.00 | 100 | 1019.1 |
| 20260505185858 | 74 | 217 | 6.0 | 16.0 | 0.00 | 0.00 | 0.00 | 100 | 1019.3 |
| 20260505185358 | 74 | 223 | 5.0 | 16.0 | 0.00 | 0.00 | 0.00 | 100 | 1019.3 |
| 20260505184859 | 74 | 225 | 5.0 | 12.0 | 0.00 | 0.00 | 0.00 | 100 | 1019.3 |
| 20260505184358 | 74 | 223 | 5.0 | 9.0 | 0.00 | 0.00 | 0.00 | 100 | 1019.3 |
| 20260505183859 | 75 | 118 | 5.0 | 10.0 | 0.00 | 0.00 | 0.00 | 100 | 1019.3 |
| 20260505183356 | 74 | 226 | 5.0 | 11.0 | 0.00 | 0.00 | 0.00 | 100 | 1019.4 |
| 20260505182856 | 74 | 221 | 6.0 | 15.0 | 0.00 | 0.00 | 0.00 | 100 | 1019.3 |
| 20260505181856 | 75 | 215 | 4.0 | 10.0 | 0.00 | 0.00 | 0.00 | 100 | 1019.3 |
| 20260505180856 | 75 | 227 | 4.0 | 13.0 | 0.00 | 0.00 | 0.00 | 100 | 1019.3 |
| 20260505175852 | 75 | 221 | 4.0 | 9.0 | 0.00 | 0.00 | 0.00 | 100 | 1019.3 |
| 20260505174853 | 74 | 207 | 5.0 | 12.0 | 0.00 | 0.00 | 0.00 | 100 | 1019.5 |
| 20260505174353 | 74 | 221 | 5.0 | 12.0 | 0.00 | 0.00 | 0.00 | 100 | 1019.5 |
| 20260505173851 | 74 | 217 | 5.0 | 12.0 | 0.00 | 0.00 | 0.00 | 100 | 1019.5 |
| 20260505173350 | 74 | 221 | 5.0 | 11.0 | 0.00 | 0.00 | 0.00 | 100 | 1019.4 |
| 20260505172850 | 73 | 221 | 6.0 | 12.0 | 0.00 | 0.00 | 0.00 | 100 | 1019.5 |
| 20260505172350 | 74 | 233 | 4.0 | 12.0 | 0.00 | 0.00 | 0.00 | 100 | 1019.4 |
| 20260505171350 | 74 | 182 | 4.0 | 11.0 | 0.00 | 0.00 | 0.00 | 100 | 1019.5 |
| 20260505170351 | 74 | 159 | 4.0 | 11.0 | 0.00 | 0.00 | 0.00 | 100 | 1019.6 |
| 20260505165850 | 74 | 207 | 4.0 | 12.0 | 0.00 | 0.00 | 0.00 | 100 | 1019.5 |
| 20260505165350 | 74 | 192 | 3.0 | 12.0 | 0.00 | 0.00 | 0.00 | 100 | 1019.5 |
| 20260505164851 | 74 | 219 | 4.0 | 9.0 | 0.00 | 0.00 | 0.00 | 100 | 1019.7 |
| 20260505164348 | 73 | 221 | 5.0 | 10.0 | 0.00 | 0.00 | 0.00 | 100 | 1019.7 |
| 20260505163849 | 73 | 200 | 6.0 | 13.0 | 0.00 | 0.00 | 0.00 | 100 | 1019.7 |
| 20260505163348 | 73 | 225 | 6.0 | 13.0 | 0.00 | 0.00 | 0.00 | 100 | 1019.7 |
| 20260505162849 | 73 | 218 | 6.0 | 11.0 | 0.00 | 0.00 | 0.00 | 100 | 1019.6 |
| 20260505161347 | 73 | 223 | 4.0 | 9.0 | 0.00 | 0.00 | 0.00 | 100 | 1020.0 |
| 20260505160844 | 73 | 239 | 5.0 | 11.0 | 0.00 | 0.00 | 0.00 | 100 | 1020.0 |
| 20260505160345 | 73 | 100 | 6.0 | 11.0 | 0.00 | 0.00 | 0.00 | 100 | 1020.1 |
| 20260505152841 | 73 | 214 | 4.0 | 11.0 | 0.00 | 0.00 | 0.00 | 100 | 1019.8 |
| 20260505152419 | 72 | 131 | 5.0 | 11.0 | 0.00 | 0.00 | 0.00 | 100 | 1019.9 |
| 20260505140332 | 71 | 224 | 3.0 | 8.0 | 0.00 | 0.00 | 0.00 | 100 | 1019.7 |
| 20260505124829 | 68 | 224 | 3.0 | 5.0 | 0.00 | 0.00 | 0.00 | 100 | 1019.5 |
| 20260505124325 | 67 | 224 | 2.0 | 5.0 | 0.00 | 0.00 | 0.00 | 100 | 1019.6 |
| 20260505123823 | 67 | 224 | 2.0 | 4.0 | 0.00 | 0.00 | 0.00 | 100 | 1019.6 |
| 20260505115315 | 59 | 224 | 0.0 | 0.0 | 0.00 | 0.00 | 0.00 | 100 | 1019.5 |
| 20260505114315 | 57 | 224 | 0.0 | 0.0 | 0.00 | 0.00 | 0.00 | 100 | 1019.4 |
| 20260505113816 | 56 | 224 | 0.0 | 0.0 | 0.00 | 0.00 | 0.00 | 100 | 1019.3 |
| 20260505113316 | 55 | 224 | 0.0 | 0.0 | 0.00 | 0.00 | 0.00 | 100 | 1019.2 |
| 20260505112815 | 54 | 224 | 0.0 | 0.0 | 0.00 | 0.00 | 0.00 | 100 | 1019.2 |
| 20260505111312 | 53 | 224 | 0.0 | 0.0 | 0.00 | 0.00 | 0.00 | 100 | 1019.1 |
| 20260505110813 | 53 | 224 | 0.0 | 0.0 | 0.00 | 0.00 | 0.00 | 100 | 1018.9 |
| 20260505110312 | 53 | 224 | 0.0 | 0.0 | 0.00 | 0.00 | 0.00 | 100 | 1018.9 |
| 20260505101809 | 52 | 224 | 0.0 | 0.0 | 0.00 | 0.00 | 0.00 | 100 | 1018.4 |
| 20260505101310 | 52 | 224 | 0.0 | 0.0 | 0.00 | 0.00 | 0.00 | 100 | 1018.3 |
| 20260505100309 | 53 | 224 | 0.0 | 0.0 | 0.00 | 0.00 | 0.00 | 100 | 1018.3 |
| 20260505095809 | 53 | 224 | 0.0 | 0.0 | 0.00 | 0.00 | 0.00 | 100 | 1018.2 |
| 20260505095310 | 53 | 224 | 0.0 | 0.0 | 0.00 | 0.00 | 0.00 | 100 | 1018.2 |
| 20260505094807 | 53 | 224 | 0.0 | 0.0 | 0.00 | 0.00 | 0.00 | 100 | 1018.1 |
| 20260505094309 | 53 | 224 | 0.0 | 0.0 | 0.00 | 0.00 | 0.00 | 100 | 1018.1 |
| 20260505093808 | 53 | 224 | 0.0 | 0.0 | 0.00 | 0.00 | 0.00 | 100 | 1018.1 |
| 20260505092307 | 53 | 224 | 0.0 | 0.0 | 0.00 | 0.00 | 0.00 | 100 | 1018.0 |
| 20260505091808 | 53 | 224 | 0.0 | 0.0 | 0.00 | 0.00 | 0.00 | 100 | 1018.0 |
| 20260505091307 | 54 | 224 | 0.0 | 0.0 | 0.00 | 0.00 | 0.00 | 100 | 1017.9 |
| 20260505090308 | 54 | 224 | 0.0 | 0.0 | 0.00 | 0.00 | 0.00 | 100 | 1017.8 |
| 20260505085806 | 54 | 224 | 0.0 | 0.0 | 0.00 | 0.00 | 0.00 | 100 | 1017.7 |
| 20260505084805 | 54 | 224 | 0.0 | 0.0 | 0.00 | 0.00 | 0.00 | 100 | 1017.9 |
| 20260505084305 | 54 | 224 | 0.0 | 0.0 | 0.00 | 0.00 | 0.00 | 100 | 1017.8 |
| 20260505083807 | 54 | 224 | 0.0 | 0.0 | 0.00 | 0.00 | 0.00 | 100 | 1017.8 |
| 20260505083304 | 54 | 224 | 0.0 | 0.0 | 0.00 | 0.00 | 0.00 | 100 | 1017.7 |
| 20260505082806 | 54 | 224 | 0.0 | 0.0 | 0.00 | 0.00 | 0.00 | 100 | 1017.7 |
| 20260505082306 | 55 | 224 | 0.0 | 0.0 | 0.00 | 0.00 | 0.00 | 100 | 1017.7 |
| 20260505081806 | 55 | 224 | 0.0 | 0.0 | 0.00 | 0.00 | 0.00 | 100 | 1017.7 |
| 20260505081305 | 55 | 224 | 0.0 | 0.0 | 0.00 | 0.00 | 0.00 | 100 | 1017.8 |
| 20260505080803 | 55 | 224 | 0.0 | 0.0 | 0.00 | 0.00 | 0.00 | 100 | 1017.8 |
| 20260505080302 | 55 | 224 | 0.0 | 0.0 | 0.00 | 0.00 | 0.00 | 100 | 1017.8 |
| 20260505075803 | 55 | 224 | 0.0 | 0.0 | 0.00 | 0.00 | 0.00 | 100 | 1017.7 |
| 20260505075304 | 55 | 224 | 0.0 | 0.0 | 0.00 | 0.00 | 0.00 | 100 | 1017.6 |
| 20260505073803 | 56 | 224 | 0.0 | 0.0 | 0.00 | 0.00 | 0.00 | 100 | 1017.5 |
| 20260505073303 | 56 | 224 | 0.0 | 0.0 | 0.00 | 0.00 | 0.00 | 100 | 1017.4 |
| 20260505072804 | 56 | 224 | 0.0 | 0.0 | 0.00 | 0.00 | 0.00 | 100 | 1017.4 |
| 20260505072304 | 56 | 224 | 0.0 | 0.0 | 0.00 | 0.00 | 0.00 | 100 | 1017.4 |
| 20260505071802 | 56 | 224 | 0.0 | 0.0 | 0.00 | 0.00 | 0.00 | 100 | 1017.3 |
| 20260505071302 | 57 | 224 | 0.0 | 0.0 | 0.00 | 0.00 | 0.00 | 100 | 1017.3 |
| 20260505070800 | 57 | 224 | 0.0 | 0.0 | 0.00 | 0.00 | 0.00 | 100 | 1017.3 |
| 20260505070259 | 57 | 224 | 0.0 | 0.0 | 0.00 | 0.00 | 0.00 | 100 | 1017.5 |
| 20260505065757 | 57 | 224 | 0.0 | 0.0 | 0.00 | 0.00 | 0.00 | 100 | 1017.4 |
| 20260505065257 | 58 | 224 | 0.0 | 0.0 | 0.00 | 0.00 | 0.00 | 100 | 1017.5 |
| 20260505064758 | 58 | 224 | 0.0 | 0.0 | 0.00 | 0.00 | 0.00 | 100 | 1017.5 |
| 20260505064256 | 58 | 224 | 0.0 | 0.0 | 0.00 | 0.00 | 0.00 | 100 | 1017.5 |
| 20260505063757 | 58 | 224 | 0.0 | 0.0 | 0.00 | 0.00 | 0.00 | 100 | 1017.6 |
| 20260505063257 | 58 | 224 | 0.0 | 0.0 | 0.00 | 0.00 | 0.00 | 100 | 1017.6 |
| 20260505062756 | 58 | 224 | 0.0 | 0.0 | 0.00 | 0.00 | 0.00 | 100 | 1017.5 |
| 20260505062254 | 59 | 224 | 0.0 | 0.0 | 0.00 | 0.00 | 0.00 | 100 | 1017.6 |
| 20260505061756 | 59 | 224 | 0.0 | 0.0 | 0.00 | 0.00 | 0.00 | 100 | 1017.7 |
| 20260505055751 | 59 | 224 | 0.0 | 0.0 | 0.00 | 0.00 | 0.00 | 100 | 1018.0 |
| 20260505055251 | 60 | 224 | 0.0 | 0.0 | 0.00 | 0.00 | 0.00 | 100 | 1018.0 |
| 20260505054752 | 60 | 224 | 0.0 | 1.0 | 0.00 | 0.00 | 0.00 | 100 | 1017.9 |
| 20260505054252 | 60 | 224 | 1.0 | 3.0 | 0.00 | 0.00 | 0.00 | 100 | 1018.0 |
| 20260505053249 | 61 | 224 | 2.0 | 4.0 | 0.00 | 0.00 | 0.00 | 100 | 1018.0 |
| 20260505052750 | 60 | 224 | 1.0 | 3.0 | 0.00 | 0.00 | 0.00 | 100 | 1018.0 |
| 20260505052250 | 60 | 224 | 0.0 | 3.0 | 0.00 | 0.00 | 0.00 | 100 | 1018.0 |
| 20260505051750 | 60 | 224 | 0.0 | 0.0 | 0.00 | 0.00 | 0.00 | 100 | 1018.1 |
| 20260505051250 | 61 | 224 | 0.0 | 0.0 | 0.00 | 0.00 | 0.00 | 100 | 1018.1 |
| 20260505050750 | 61 | 224 | 0.0 | 2.0 | 0.00 | 0.00 | 0.00 | 100 | 1018.1 |
| 20260505050250 | 61 | 224 | 1.0 | 3.0 | 0.00 | 0.00 | 0.00 | 100 | 1018.1 |
| 20260505034733 | 63 | 224 | 1.0 | 2.0 | 0.00 | 0.00 | 0.00 | 100 | 1018.3 |
| 20260505034234 | 63 | 224 | 0.0 | 2.0 | 0.00 | 0.00 | 0.00 | 100 | 1018.2 |
| 20260505033730 | 63 | 224 | 0.0 | 2.0 | 0.00 | 0.00 | 0.00 | 100 | 1018.2 |
| 20260505033230 | 63 | 224 | 1.0 | 3.0 | 0.00 | 0.00 | 0.00 | 100 | 1018.4 |
| 20260505032729 | 63 | 224 | 1.0 | 3.0 | 0.00 | 0.00 | 0.00 | 100 | 1018.4 |
| 20260505032229 | 63 | 224 | 0.0 | 3.0 | 0.00 | 0.00 | 0.00 | 100 | 1018.4 |
| 20260505031729 | 63 | 224 | 0.0 | 1.0 | 0.00 | 0.00 | 0.00 | 100 | 1018.4 |
| 20260505031226 | 64 | 224 | 1.0 | 4.0 | 0.00 | 0.00 | 0.00 | 100 | 1018.6 |
| 20260505030725 | 64 | 224 | 2.0 | 4.0 | 0.00 | 0.00 | 0.00 | 100 | 1018.6 |
| 20260505030225 | 64 | 224 | 1.0 | 3.0 | 0.00 | 0.00 | 0.00 | 100 | 1018.7 |
| 20260505025226 | 64 | 224 | 2.0 | 3.0 | 0.00 | 0.00 | 0.00 | 100 | 1018.6 |
| 20260505024724 | 64 | 224 | 2.0 | 4.0 | 0.00 | 0.00 | 0.00 | 100 | 1018.7 |
| 20260505024226 | 64 | 224 | 2.0 | 4.0 | 0.00 | 0.00 | 0.00 | 100 | 1018.4 |
| 20260505023723 | 64 | 224 | 2.0 | 3.0 | 0.00 | 0.00 | 0.00 | 100 | 1018.7 |
| 20260505020723 | 65 | 225 | 2.0 | 4.0 | 0.00 | 0.00 | 0.00 | 100 | 1018.4 |
| 20260505020222 | 65 | 224 | 2.0 | 4.0 | 0.00 | 0.00 | 0.00 | 100 | 1018.4 |
| 20260505015724 | 65 | 225 | 2.0 | 4.0 | 0.00 | 0.00 | 0.00 | 100 | 1018.4 |
| 20260505014721 | 66 | 225 | 3.0 | 5.0 | 0.00 | 0.00 | 0.00 | 100 | 1018.6 |
| 20260505013720 | 66 | 224 | 3.0 | 5.0 | 0.00 | 0.00 | 0.00 | 100 | 1018.3 |
| 20260505013222 | 66 | 224 | 4.0 | 7.0 | 0.00 | 0.00 | 0.00 | 100 | 1018.3 |
| 20260505012721 | 66 | 224 | 3.0 | 7.0 | 0.00 | 0.00 | 0.00 | 100 | 1018.2 |
| 20260505011722 | 66 | 219 | 3.0 | 7.0 | 0.00 | 0.00 | 0.00 | 100 | 1018.1 |
| 20260505011221 | 66 | 218 | 4.0 | 8.0 | 0.00 | 0.00 | 0.00 | 100 | 1018.0 |
| 20260505010720 | 66 | 223 | 4.0 | 8.0 | 0.00 | 0.00 | 0.00 | 100 | 1017.9 |
| 20260505010220 | 66 | 220 | 4.0 | 7.0 | 0.00 | 0.00 | 0.00 | 100 | 1017.8 |
| 20260505005719 | 66 | 225 | 4.0 | 7.0 | 0.00 | 0.00 | 0.00 | 100 | 1017.7 |
| 20260505005218 | 66 | 225 | 3.0 | 7.0 | 0.00 | 0.00 | 0.00 | 100 | 1017.7 |
| 20260505004718 | 66 | 225 | 4.0 | 7.0 | 0.00 | 0.00 | 0.00 | 100 | 1017.7 |
| 20260505004216 | 66 | 225 | 4.0 | 7.0 | 0.00 | 0.00 | 0.00 | 100 | 1017.7 |
| 20260505003718 | 66 | 225 | 4.0 | 7.0 | 0.00 | 0.00 | 0.00 | 100 | 1017.7 |
| 20260505003216 | 66 | 223 | 4.0 | 7.0 | 0.00 | 0.00 | 0.00 | 100 | 1017.6 |
| 20260505002716 | 66 | 223 | 3.0 | 7.0 | 0.00 | 0.00 | 0.00 | 100 | 1017.5 |
| 20260505002217 | 66 | 224 | 4.0 | 7.0 | 0.00 | 0.00 | 0.00 | 100 | 1017.5 |
| 20260505001214 | 67 | 226 | 3.0 | 6.0 | 0.00 | 0.00 | 0.00 | 100 | 1017.5 |
| 20260504234210 | 67 | 223 | 3.0 | 5.0 | 0.00 | 0.00 | 0.00 | 100 | 1017.4 |
| 20260504233710 | 67 | 223 | 4.0 | 8.0 | 0.00 | 0.00 | 0.00 | 100 | 1017.4 |
| 20260504233211 | 67 | 222 | 4.0 | 8.0 | 0.00 | 0.00 | 0.00 | 100 | 1017.3 |
| 20260504232708 | 67 | 218 | 3.0 | 8.0 | 0.00 | 0.00 | 0.00 | 100 | 1017.1 |
| 20260504231708 | 68 | 218 | 4.0 | 9.0 | 0.00 | 0.00 | 0.00 | 100 | 1017.2 |
| 20260504230705 | 68 | 227 | 4.0 | 8.0 | 0.00 | 0.00 | 0.00 | 100 | 1017.2 |
| 20260504230206 | 68 | 218 | 4.0 | 8.0 | 0.00 | 0.00 | 0.00 | 100 | 1017.3 |
| 20260504225705 | 69 | 238 | 3.0 | 7.0 | 0.00 | 0.00 | 0.00 | 100 | 1017.3 |
| 20260504225205 | 69 | 207 | 3.0 | 5.0 | 0.00 | 0.00 | 0.00 | 100 | 1017.2 |
| 20260504224704 | 69 | 213 | 2.0 | 5.0 | 0.00 | 0.00 | 0.00 | 100 | 1017.2 |
| 20260504223704 | 69 | 214 | 3.0 | 9.0 | 0.00 | 0.00 | 0.00 | 100 | 1017.3 |
| 20260504223204 | 69 | 213 | 4.0 | 13.0 | 0.00 | 0.00 | 0.00 | 100 | 1017.3 |
| 20260504222705 | 69 | 231 | 5.0 | 13.0 | 0.00 | 0.00 | 0.00 | 100 | 1017.3 |
| 20260504222205 | 69 | 209 | 5.0 | 11.0 | 0.00 | 0.00 | 0.00 | 100 | 1017.2 |
| 20260504221204 | 70 | 219 | 4.0 | 10.0 | 0.00 | 0.00 | 0.00 | 100 | 1017.3 |
| 20260504220704 | 70 | 223 | 4.0 | 11.0 | 0.00 | 0.00 | 0.00 | 100 | 1017.4 |
| 20260504220204 | 70 | 169 | 3.0 | 11.0 | 0.00 | 0.00 | 0.00 | 100 | 1017.5 |
| 20260504215704 | 70 | 197 | 4.0 | 12.0 | 0.00 | 0.00 | 0.00 | 100 | 1017.4 |
| 20260504214705 | 70 | 223 | 5.0 | 11.0 | 0.00 | 0.00 | 0.00 | 100 | 1017.4 |
| 20260504214205 | 70 | 223 | 5.0 | 11.0 | 0.00 | 0.00 | 0.00 | 100 | 1017.5 |
| 20260504213204 | 70 | 225 | 5.0 | 13.0 | 0.00 | 0.00 | 0.00 | 100 | 1017.7 |
| 20260504212704 | 71 | 221 | 5.0 | 13.0 | 0.00 | 0.00 | 0.00 | 100 | 1017.5 |
| 20260504212204 | 71 | 211 | 5.0 | 13.0 | 0.00 | 0.00 | 0.00 | 100 | 1017.5 |
| 20260504211702 | 71 | 217 | 5.0 | 14.0 | 0.00 | 0.00 | 0.00 | 100 | 1017.5 |
| 20260504211203 | 70 | 207 | 6.0 | 14.0 | 0.00 | 0.00 | 0.00 | 100 | 1017.5 |
| 20260504210703 | 70 | 224 | 5.0 | 12.0 | 0.00 | 0.00 | 0.00 | 100 | 1017.4 |
| 20260504210201 | 71 | 227 | 4.0 | 12.0 | 0.00 | 0.00 | 0.00 | 100 | 1017.4 |
| 20260504205700 | 71 | 206 | 4.0 | 8.0 | 0.00 | 0.00 | 0.00 | 100 | 1017.4 |
| 20260504204657 | 70 | 223 | 5.0 | 14.0 | 0.00 | 0.00 | 0.00 | 100 | 1017.5 |
| 20260504204158 | 71 | 207 | 5.0 | 14.0 | 0.00 | 0.00 | 0.00 | 100 | 1017.4 |
| 20260504203655 | 71 | 193 | 5.0 | 11.0 | 0.00 | 0.00 | 0.00 | 100 | 1017.4 |
| 20260504203155 | 71 | 217 | 5.0 | 10.0 | 0.00 | 0.00 | 0.00 | 100 | 1017.4 |
| 20260504202654 | 71 | 213 | 6.0 | 14.0 | 0.00 | 0.00 | 0.00 | 100 | 1017.5 |
| 20260504201656 | 71 | 225 | 5.0 | 13.0 | 0.00 | 0.00 | 0.00 | 100 | 1017.5 |
| 20260504200655 | 71 | 221 | 5.0 | 16.0 | 0.00 | 0.00 | 0.00 | 100 | 1017.5 |
| 20260504195652 | 70 | 218 | 5.0 | 13.0 | 0.00 | 0.00 | 0.00 | 100 | 1017.5 |
| 20260504194150 | 70 | 217 | 6.0 | 13.0 | 0.00 | 0.00 | 0.00 | 100 | 1017.7 |